{"data":{"norad_id":69029,"epoch":"2026-05-25T03:33:36.683136Z","epoch_age_seconds":56048,"freshness":"FRESH","line1":"1 69029U 26101E   26145.14834124  .00183242  00000+0  12006-2 0  9991","line2":"2 69029  97.2848 359.8978 0001206  81.0007 279.1394 15.75240606  3015","mean_motion":15.75240606,"eccentricity":0.0001206,"inclination_deg":97.2848,"raan_deg":359.8978,"arg_perigee_deg":81.0007,"mean_anomaly_deg":279.1394,"bstar":0.0012006,"rev_number":301,"period_min":91.414606410927,"perigee_km":343.13591295577,"apogee_km":344.75727951919,"semimajor_km":6722.0835962375,"source":"CELESTRAK","updated_at":"2026-05-25T13:38:22.079930Z"}}